Location: Sternwarte Stuttgart
(48.7824°N, 9.1965°E)
Time: 19:48:57
(UTC+00:00)

ISS - Visible Passes

Search period start: 27 February 2021 00:00
Search period end: 09 March 2021 00:00
Orbit: 417 x 422 km, 51.6° (Epoch: 27 February)

Date Brightness Start Highest point End Pass type
(mag) Time Alt. Az. Time Alt. Az. Time Alt. Az.
27 Feb -2.8 03:52:06 46° E 03:52:06 46° E 03:54:40 10° ENE visible
27 Feb -3.3 05:25:04 11° W 05:28:14 52° N 05:31:33 10° ENE visible
28 Feb -0.6 03:06:30 15° E 03:06:30 15° E 03:07:10 10° ENE visible
28 Feb -3.5 04:39:28 33° WNW 04:40:43 59° NNW 04:44:03 10° ENE visible
01 Mar -3.1 03:53:50 54° NE 03:53:50 54° NE 03:56:35 10° ENE visible
01 Mar -3.2 05:26:59 10° WNW 05:30:17 50° N 05:33:34 10° E visible
02 Mar -0.8 03:08:10 17° ENE 03:08:10 17° ENE 03:09:06 10° ENE visible
02 Mar -3.2 04:41:07 26° WNW 04:42:43 49° N 04:46:01 10° ENE visible
03 Mar -3.1 03:55:26 50° NNE 03:55:26 50° NNE 03:58:29 10° ENE visible
04 Mar -1.1 03:09:45 20° ENE 03:09:45 20° ENE 03:10:59 10° ENE visible
04 Mar -3.3 04:42:42 21° WNW 04:44:43 54° N 04:48:02 10° E visible
05 Mar -3.2 03:57:02 50° N 03:57:10 50° N 04:00:28 10° E visible
06 Mar -1.3 03:11:22 23° ENE 03:11:22 23° ENE 03:12:54 10° ENE visible
06 Mar -3.7 04:44:20 19° WNW 04:46:39 79° NNE 04:50:01 10° ESE visible
07 Mar -3.6 03:58:43 57° NNW 03:59:07 64° NNE 04:02:28 10° E visible
08 Mar -1.6 03:13:08 27° ENE 03:13:08 27° ENE 03:14:53 10° E visible
08 Mar -3.6 04:46:06 18° WNW 04:48:25 55° SSW 04:51:43 10° SE visible
